Total_Precipitation_Accumulation
0.54 0.42 0.52 0.61 0.55 0.57 0.86 0.90 0.82 0.49 0.41 0.43 0.42 0.41 0.41 0.41 0.41 0.39 0.41 0.45 0.51 0.57 0.62 0.67 0.74 0.83 0.89 0.94 0.97 1.01 1.14 1.23 1.32 1.36 1.43 1.46 1.42 1.51 1.70 1.67 1.52 1.43 1.41 1.47
0.50 0.34 0.41 0.49 0.40 0.42 0.50 0.52 0.50 0.37 0.38 0.39 0.36 0.32 0.33 0.38 0.41 0.43 0.45 0.47 0.49 0.56 0.61 0.68 0.75 0.86 0.97 0.99 1.00 0.96 1.03 1.15 1.26 1.35 1.48 1.48 1.41 1.45 1.59 1.67 1.61 1.51 1.44 1.45
0.78 0.37 0.65 0.72 0.48 0.46 0.49 0.48 0.53 0.59 0.50 0.38 0.36 0.36 0.42 0.47 0.48 0.49 0.49 0.50 0.50 0.55 0.62 0.71 0.77 0.87 1.00 1.02 1.01 0.99 1.01 1.09 1.18 1.26 1.42 1.46 1.44 1.50 1.55 1.62 1.70 1.70 1.54 1.42
1.30 0.90 1.21 0.62 0.33 0.37 0.43 0.50 0.55 0.53 0.43 0.42 0.45 0.40 0.41 0.48 0.55 0.55 0.51 0.51 0.51 0.56 0.64 0.68 0.75 0.82 0.90 0.95 0.97 1.04 1.07 1.10 1.17 1.20 1.26 1.39 1.47 1.49 1.51 1.53 1.58 1.65 1.60 1.49
1.90 1.35 0.73 0.34 0.27 0.36 0.50 0.56 0.49 0.43 0.39 0.36 0.33 0.30 0.32 0.35 0.44 0.54 0.54 0.54 0.56 0.60 0.64 0.66 0.69 0.77 0.87 0.91 0.94 1.06 1.14 1.15 1.14 1.11 1.16 1.29 1.38 1.46 1.49 1.51 1.46 1.47 1.47 1.47
2.15 1.67 0.80 0.45 0.27 0.25 0.42 0.70 0.43 0.37 0.40 0.36 0.36 0.48 0.39 0.33 0.41 0.51 0.50 0.52 0.58 0.61 0.59 0.62 0.68 0.74 0.86 0.92 0.90 1.03 1.12 1.16 1.09 1.01 1.01 1.06 1.17 1.34 1.44 1.46 1.39 1.38 1.40 1.40
1.79 1.48 0.66 0.41 0.28 0.31 0.69 0.77 0.40 0.38 0.42 0.43 0.50 0.58 0.45 0.40 0.46 0.50 0.48 0.51 0.54 0.56 0.56 0.65 0.70 0.71 0.82 0.90 0.97 1.02 1.10 1.15 1.06 0.98 0.98 1.00 1.08 1.25 1.38 1.44 1.42 1.35 1.30 1.32
1.32 1.54 0.84 0.40 0.41 0.69 0.80 0.45 0.35 0.33 0.34 0.37 0.36 0.33 0.33 0.37 0.44 0.46 0.43 0.43 0.46 0.51 0.55 0.62 0.68 0.73 0.81 0.90 0.98 1.05 1.11 1.11 1.09 1.06 1.02 1.04 1.09 1.22 1.36 1.43 1.48 1.42 1.31 1.29
0.99 0.85 0.56 0.44 0.56 0.59 0.51 0.41 0.32 0.33 0.30 0.31 0.30 0.30 0.34 0.38 0.41 0.44 0.41 0.41 0.43 0.49 0.51 0.58 0.66 0.73 0.84 0.92 0.94 1.02 1.08 1.12 1.12 1.13 1.10 1.11 1.15 1.23 1.36 1.43 1.47 1.44 1.34 1.27
0.69 0.45 0.36 0.38 0.42 0.42 0.38 0.36 0.31 0.31 0.30 0.28 0.28 0.28 0.32 0.36 0.37 0.39 0.40 0.40 0.42 0.47 0.50 0.59 0.65 0.69 0.79 0.88 0.88 0.90 0.96 1.07 1.08 1.11 1.16 1.21 1.24 1.25 1.33 1.43 1.49 1.39 1.31 1.23
0.61 0.37 0.34 0.32 0.33 0.34 0.29 0.26 0.25 0.26 0.27 0.27 0.28 0.28 0.30 0.34 0.36 0.39 0.45 0.45 0.47 0.50 0.52 0.61 0.67 0.72 0.79 0.81 0.81 0.84 0.88 1.01 1.11 1.15 1.19 1.26 1.28 1.29 1.36 1.36 1.51 1.48 1.34 1.25
0.62 0.40 0.47 0.39 0.31 0.30 0.29 0.27 0.28 0.28 0.27 0.25 0.28 0.32 0.31 0.34 0.37 0.41 0.47 0.50 0.51 0.53 0.57 0.63 0.70 0.79 0.82 0.78 0.78 0.83 0.89 0.96 1.08 1.17 1.17 1.17 1.19 1.24 1.40 1.43 1.46 1.41 1.35 1.31
0.44 0.35 0.35 0.32 0.27 0.28 0.28 0.26 0.27 0.28 0.29 0.28 0.27 0.30 0.34 0.36 0.36 0.39 0.44 0.49 0.58 0.62 0.67 0.69 0.73 0.81 0.83 0.79 0.77 0.81 0.88 0.94 1.02 1.11 1.11 1.08 1.06 1.07 1.18 1.35 1.46 1.44 1.39 1.33
0.26 0.29 0.30 0.24 0.24 0.23 0.22 0.22 0.22 0.23 0.24 0.25 0.26 0.28 0.32 0.34 0.33 0.36 0.42 0.50 0.59 0.63 0.67 0.72 0.77 0.84 0.86 0.80 0.79 0.80 0.86 0.97 1.01 1.04 1.07 1.06 1.06 1.04 1.04 1.14 1.29 1.37 1.39 1.35
0.16 0.21 0.25 0.20 0.19 0.18 0.18 0.18 0.19 0.20 0.20 0.19 0.21 0.25 0.29 0.34 0.36 0.39 0.44 0.50 0.57 0.61 0.65 0.72 0.81 0.90 0.88 0.82 0.81 0.84 0.92 0.97 0.96 1.00 1.04 1.07 1.08 1.11 1.11 1.13 1.17 1.23 1.29 1.43
0.17 0.17 0.19 0.19 0.20 0.19 0.19 0.19 0.20 0.19 0.19 0.20 0.21 0.23 0.26 0.33 0.39 0.45 0.50 0.54 0.61 0.67 0.71 0.75 0.83 0.92 0.88 0.82 0.82 0.85 0.97 1.09 1.05 1.04 1.07 1.09 1.11 1.17 1.22 1.24 1.24 1.22 1.23 1.35
0.26 0.24 0.21 0.20 0.19 0.18 0.20 0.21 0.21 0.21 0.20 0.21 0.23 0.24 0.25 0.30 0.35 0.41 0.48 0.56 0.65 0.70 0.73 0.76 0.83 0.88 0.87 0.86 0.85 0.86 0.93 1.03 1.11 1.07 1.05 1.07 1.11 1.16 1.21 1.28 1.29 1.21 1.15 1.26
0.29 0.28 0.24 0.24 0.22 0.21 0.19 0.19 0.20 0.23 0.24 0.25 0.26 0.27 0.29 0.33 0.39 0.45 0.53 0.57 0.61 0.66 0.72 0.76 0.84 0.88 0.87 0.91 0.90 0.88 0.92 0.99 1.01 1.03 1.05 1.10 1.16 1.16 1.22 1.28 1.27 1.22 1.20 1.27
0.21 0.21 0.20 0.20 0.21 0.21 0.21 0.21 0.23 0.25 0.26 0.28 0.30 0.32 0.34 0.38 0.44 0.51 0.57 0.58 0.59 0.64 0.71 0.77 0.88 0.84 0.84 0.93 0.98 0.94 0.98 1.03 1.04 1.02 1.03 1.16 1.22 1.18 1.20 1.25 1.28 1.27 1.26 1.28
0.20 0.19 0.18 0.17 0.18 0.19 0.22 0.24 0.24 0.25 0.26 0.29 0.32 0.33 0.35 0.40 0.46 0.51 0.56 0.58 0.63 0.72 0.72 0.78 0.79 0.78 0.80 0.91 1.01 0.98 1.02 1.06 1.07 1.04 1.05 1.09 1.15 1.19 1.19 1.22 1.26 1.30 1.30 1.31
0.21 0.19 0.18 0.18 0.19 0.20 0.23 0.24 0.24 0.25 0.25 0.28 0.35 0.39 0.42 0.47 0.50 0.54 0.55 0.55 0.57 0.63 0.65 0.70 0.72 0.76 0.82 0.96 1.05 1.02 1.03 1.04 1.06 1.06 1.08 1.10 1.15 1.18 1.19 1.20 1.23 1.25 1.28 1.31
0.24 0.23 0.23 0.21 0.21 0.22 0.25 0.26 0.28 0.29 0.29 0.31 0.35 0.42 0.46 0.49 0.49 0.50 0.52 0.56 0.59 0.65 0.64 0.62 0.66 0.78 0.88 0.96 0.97 0.98 0.98 1.00 1.03 1.07 1.11 1.13 1.20 1.25 1.22 1.20 1.25 1.25 1.26 1.29
0.26 0.25 0.26 0.26 0.27 0.28 0.26 0.26 0.31 0.35 0.36 0.37 0.41 0.45 0.48 0.49 0.50 0.52 0.54 0.54 0.59 0.68 0.66 0.67 0.76 0.86 0.94 0.90 0.87 0.91 0.93 0.96 1.00 1.05 1.12 1.16 1.21 1.25 1.26 1.25 1.26 1.27 1.31 1.33
0.29 0.27 0.28 0.29 0.30 0.30 0.29 0.29 0.33 0.38 0.42 0.43 0.45 0.48 0.51 0.51 0.50 0.50 0.57 0.64 0.69 0.74 0.70 0.77 0.86 0.91 0.95 0.87 0.83 0.88 0.95 1.00 1.03 1.10 1.15 1.19 1.22 1.26 1.26 1.25 1.28 1.26 1.28 1.30
0.32 0.31 0.30 0.30 0.32 0.35 0.37 0.35 0.35 0.38 0.39 0.43 0.45 0.48 0.53 0.58 0.62 0.61 0.61 0.67 0.74 0.79 0.78 0.84 0.90 0.92 0.88 0.87 0.88 0.92 1.01 1.07 1.16 1.27 1.30 1.27 1.25 1.27 1.23 1.21 1.25 1.29 1.28 1.27
0.37 0.38 0.38 0.39 0.41 0.43 0.43 0.41 0.41 0.39 0.39 0.42 0.47 0.52 0.58 0.62 0.64 0.66 0.67 0.70 0.75 0.81 0.81 0.82 0.86 0.89 0.90 0.95 0.98 1.02 1.10 1.16 1.22 1.23 1.20 1.22 1.22 1.21 1.18 1.18 1.20 1.24 1.26 1.24
0.42 0.41 0.42 0.44 0.46 0.47 0.48 0.49 0.51 0.51 0.50 0.54 0.59 0.60 0.62 0.66 0.70 0.72 0.73 0.75 0.78 0.81 0.83 0.86 0.89 0.94 1.00 1.04 1.08 1.11 1.15 1.17 1.19 1.20 1.18 1.19 1.20 1.18 1.16 1.16 1.18 1.20 1.21 1.18